Flag for Israel Weather past 2 weeks in Bat Yam, Israel

Now
77 °F

Sunny.


Feels Like: 78 °F
Forecast: 66 / 80 °F
Wind: 5 mph from Northwest

Location: Dov Airport

Current Time: Oct 22, 2014 at 5:40:26 PM

Latest Report: Oct 22, 2014 at 4:50 PM


Visibility: 10 mi

Pressure: 29.92 "Hg

Humidity: 44%

Dew point: 54 °F

Location of Bat YamLocation

Historic Weather in Bat Yam — Graph

°F

Bat Yam temperature yesterday

Maximum temperature yesterday: 79 °F (at 2:50 PM)
Minimum temperature yesterday: 63 °F (at 5:50 AM)
Average temperature yesterday: 72 °F

Past Weeks' High & Low Weather Summary

 TemperatureHumidityPressure
High84 °F (Oct 8, 2:50 PM)94% (Oct 19, 5:50 PM)30.12 "Hg (Oct 19, 5:50 PM)
Low63 °F (Oct 21, 5:50 AM)37% (Oct 22, 9:50 AM)29.71 "Hg (Oct 19, 2:50 PM)
Average77 °F64%29.92 "Hg
* Reported Oct 7 4:50 PM — Oct 22 4:50 PM, Bat Yam, Weather by CustomWeather, © 2014

Note: Actual official high and low records may vary slightly from our data, if they occured in-between our weather recording intervals... More about our weather records

Advertising

Bat Yam weather history for previous 24 hours

 ConditionsComfort  
Time TempWeatherWind HumidityBarometerVisibility
4:50 PM
Oct 22
77 °FSunny.5 mph44%29.92 "Hg10 mi
3:50 PM77 °FSunny.7 mph44%29.92 "Hg10 mi
2:50 PM79 °FSunny.9 mph45%29.92 "Hg10 mi
1:50 PM79 °FSunny.9 mph42%29.95 "Hg10 mi
12:50 PM79 °FSunny.8 mph42%29.95 "Hg10 mi
11:50 AM79 °FSunny.8 mph42%29.98 "Hg10 mi
10:50 AM77 °FSunny.7 mph42%29.98 "Hg10 mi
9:50 AM79 °FSunny.1 mph37%29.98 "Hg10 mi
8:50 AM72 °FSunny.5 mph50%29.98 "Hg10 mi
7:50 AM66 °FSunny.7 mph60%29.98 "Hg10 mi
10:50 PM
Oct 21
70 °FClear.5 mph60%30.01 "Hg10 mi
9:50 PM70 °FClear.5 mph60%30.01 "Hg10 mi
8:50 PM72 °FClear.3 mph57%30.01 "Hg10 mi
7:50 PM72 °FClear.3 mph61%29.98 "Hg10 mi
6:50 PM73 °FClear.6 mph53%29.98 "Hg10 mi
5:50 PM75 °FSunny.7 mph50%29.95 "Hg10 mi
Weather by CustomWeather, © 2014

See weather overviewHow to use our weather pages